Tulsa, OK

3:46 PM CST on January 16, 2018 (GMT -0600)
Tulsa International

Weather History for KTUL - November, 2011

Change the Weather History Date:

Tuesday, November 29, 2011

  Actual Average Record
Temperature  
Mean Temperature 43 °F 44 °F  
Max Temperature 54 °F 54 °F 82 °F (1927)
Min Temperature 31 °F 34 °F 10 °F (1976)
Degree Days  
Heating Degree Days 22 21  
Month to date heating degree days 399 429  
Since 1 July heating degree days 552 615  
Moisture  
Dew Point 26 °F    
Average Humidity 51    
Maximum Humidity 69    
Minimum Humidity 32    
Precipitation  
Precipitation 0.00 in 0.09 in 2.80 in (1908)
Month to date precipitation 5.37 2.73  
Year to date precipitation 30.54 38.40  
Sea Level Pressure  
Sea Level Pressure 30.21 in    
Wind  
Wind Speed 10 mph (NNW)    
Max Wind Speed 22 mph    
Max Gust Speed 28 mph    
Visibility 10 miles    
Events      
T = Trace of Precipitation, MM = Missing Value Source: NWS Daily Summary

Daily Weather History Graph

Daily Weather History Graph

Search for Another Location

Airport or City:

Trip Planner

Search our weather history database for the weather conditions in past years. The results will help you decide how hot, cold, wet, or windy it might be!

Date:

Astronomy

Nov. 29, 2011 Rise Set
Actual Time 7:14 AM CST 5:09 PM CST
Civil Twilight 6:45 AM CST 5:37 PM CST
Nautical Twilight 6:14 AM CST 6:09 PM CST
Astronomical Twilight 5:43 AM CST 6:40 PM CST
Moon 11:04 AM CST (11/29) 10:00 PM CST (11/29)
Length of Visible Light 10h 51m
Length of Day
9h 55m
Waxing Crescent, 24% of the Moon is Illuminated
Nov 29
Waxing Crescent
Dec 2
First Quarter
Dec 10
Full
Dec 17
Last Quarter
Dec 24
New

Hourly Weather History & Observations

Time (CST) Temp. Windchill Dew Point Humidity Pressure Visibility Wind Dir Wind Speed Gust Speed Precip Events Conditions
12:53 AM 33.1 °F 28.7 °F 23.0 °F 66% 30.09 in 10.0 mi WNW 4.6 mph - N/A   Clear
1:53 AM 34.0 °F 28.8 °F 24.1 °F 67% 30.10 in 10.0 mi West 5.8 mph - N/A   Clear
2:53 AM 35.1 °F 27.9 °F 24.1 °F 64% 30.10 in 10.0 mi WNW 9.2 mph - N/A   Clear
3:53 AM 35.1 °F 27.9 °F 25.0 °F 67% 30.12 in 10.0 mi NW 9.2 mph - N/A   Clear
4:53 AM 34.0 °F 26.6 °F 24.1 °F 67% 30.13 in 10.0 mi NW 9.2 mph - N/A   Clear
5:53 AM 36.0 °F 27.5 °F 24.1 °F 62% 30.16 in 10.0 mi NNW 12.7 mph - N/A   Clear
6:53 AM 35.1 °F 27.4 °F 25.0 °F 67% 30.18 in 10.0 mi NNW 10.4 mph - N/A   Clear
7:53 AM 37.0 °F 29.3 °F 27.0 °F 67% 30.22 in 10.0 mi NNW 11.5 mph - N/A   Clear
8:53 AM 41.0 °F 33.1 °F 30.0 °F 65% 30.24 in 10.0 mi NNW 15.0 mph - N/A   Clear
9:53 AM 44.1 °F 35.7 °F 30.0 °F 58% 30.25 in 10.0 mi North 20.7 mph - N/A   Clear
10:53 AM 46.4 °F 39.0 °F 32.0 °F 57% 30.24 in 10.0 mi North 19.6 mph 23.0 mph N/A   Clear
11:53 AM 50.0 °F - 34.0 °F 54% 30.23 in 10.0 mi North 12.7 mph - N/A   Clear
12:53 PM 52.0 °F - 33.1 °F 49% 30.21 in 10.0 mi NNW 16.1 mph 23.0 mph N/A   Clear
1:53 PM 53.1 °F - 33.1 °F 47% 30.19 in 10.0 mi NNW 13.8 mph 23.0 mph N/A   Clear
2:53 PM 54.0 °F - 32.0 °F 43% 30.20 in 10.0 mi North 12.7 mph - N/A   Clear
3:53 PM 53.1 °F - 30.0 °F 41% 30.21 in 10.0 mi NNW 16.1 mph - N/A   Clear
4:53 PM 50.0 °F - 21.9 °F 33% 30.22 in 10.0 mi NNE 10.4 mph - N/A   Clear
5:53 PM 43.0 °F 38.8 °F 24.1 °F 47% 30.24 in 10.0 mi NNW 6.9 mph - N/A   Clear
6:53 PM 37.9 °F 33.5 °F 23.0 °F 55% 30.26 in 10.0 mi NNW 5.8 mph - N/A   Clear
7:53 PM 39.9 °F 37.8 °F 21.9 °F 49% 30.27 in 10.0 mi NNW 3.5 mph - N/A   Clear
8:53 PM 37.9 °F 34.4 °F 19.9 °F 48% 30.26 in 10.0 mi NW 4.6 mph - N/A   Clear
9:53 PM 36.0 °F 31.1 °F 19.9 °F 52% 30.27 in 10.0 mi NW 5.8 mph - N/A   Clear
10:53 PM 35.1 °F 32.2 °F 19.9 °F 54% 30.26 in 10.0 mi NW 3.5 mph - N/A   Clear
11:53 PM 36.0 °F 33.3 °F 19.9 °F 52% 30.27 in 10.0 mi WNW 3.5 mph - N/A   Clear